Weather Roundup
Issued by NWS Chicago, IL

Home | Current Version | Previous Version | Text Only | Print | Product List | Glossary On
Versions: 1 2 3 4 5 6 7 8 9 10 11 12 13 14 15 16 17 18 19 20 21 22 23 24 25 26 27 28 29 30 31 32 33 34 35 36 37 38 39 40 41 42 43 44 45 46 47 48 49 50
000
NZUS59 KLOT 080008
HRRLOT

CHICAGO AREA WEATHER ROUNDUP
NATIONAL WEATHER SERVICE CHICAGO/ROMEOVILLE IL
600 PM CST SUN FEB 07 2016

NOTE: "FAIR" INDICATES FEW OR NO CLOUDS BELOW 12,000 FEET WITH NO
SIGNIFICANT WEATHER AND/OR OBSTRUCTIONS TO VISIBILITY.

* THESE STATIONS ARE NOT UNDER NWS QUALITY CONTROL. THEY ALSO MAY NOT
  REPORT WEATHER SUCH AS PRECIPITATION OR FOG.

ILZ005-006-012>014-019>023-080100-
NORTHEAST ILLINOIS

CITY           SKY/WX    TMP DP  RH WIND       PRES   REMARKS
OHARE          PTCLDY    40  30  67 W12G21    29.75R
6HR MIN TEMP:  40; 6HR MAX TEMP:  43;

MIDWAY         PTCLDY    43  30  60 W13       29.76R
6HR MIN TEMP:  43; 6HR MAX TEMP:  46;

AURORA         CLEAR     37  29  72 W10       29.77R
6HR MIN TEMP:  37; 6HR MAX TEMP:  45;

LANSING*       PTCLDY    40  32  74 SW9       29.77S
JOLIET*        CLEAR     41  31  68 W9        29.79R
WAUKEGAN       CLEAR     39  30  70 W9        29.71R
6HR MIN TEMP:  39; 6HR MAX TEMP:  42;

DUPAGE AIRPORT CLEAR     38  28  67 W12       29.76R
6HR MIN TEMP:  38; 6HR MAX TEMP:  43;

WHEELING       CLEAR     41  29  62 W12       29.75R
6HR MIN TEMP:  41; 6HR MAX TEMP:  44;

KANKAKEE*      CLEAR     35  31  84 SW7       29.80S WCI  30
MORRIS*          N/A     38  30  74 W9G17     29.76S
LEWIS AIRPORT* CLEAR     38  30  73 W10       29.77S
$$

WIZ051-052-058>065-066-070>072-080100-
SOUTHEAST WISCONSIN

CITY           SKY/WX    TMP DP  RH WIND       PRES   REMARKS
MILWAUKEE      PTCLDY    39  28  64 SW10      29.69R
6HR MIN TEMP:  39; 6HR MAX TEMP:  45;

KENOSHA*       CLEAR     38  29  70 W14       29.70R
RACINE*        CLEAR     39  28  64 W8        29.71R
BURLINGTON     CLEAR     35  27  71 SW10      29.72R WCI  27
WAUKESHA       CLEAR     36  27  69 SW12      29.69R
WEST BEND      CLEAR     36  28  75 CALM      29.66S
$$

INZ001>003-010>013-019-020-080100-
NORTHWEST INDIANA

CITY           SKY/WX    TMP DP  RH WIND       PRES   REMARKS
GARY*          MOCLDY    43  30  61 SW14      29.77S
MICHIGAN CITY* NOT AVBL
RENSSELAER*    NOT AVBL
VALPARAISO     CLOUDY    41  32  70 SW15      29.78R
$$

LMZ740>746-080100-
SOUTHERN LAKE MICHIGAN

STATION/POSITION TIME  SKY/WX   TEMP WIND        PRES    VSBY
                                AIR  DIR/SP/G
                 (UTC)          (F)  (DEG/KT/KT) (MB)    (MI)
HARRISON CRIB    2300            44  240/ 16/ 21   N/A
BURNHAM HARBOR   0000            42  230/  7/ 13   N/A
CALUMET HARBOR   2300            43  230/ 10/ 14 1006.9R
BURNS HARBOR     2320            43  240/ 15/ 21 1008.5R
MICHIGAN CITY    2300            43  200/ 15/ 17   N/A
$$

ABBREVIATIONS USED IN REMARKS
   TC - TEMPERATURE IN CELSIUS
  WCI - WIND CHILL INDEX
   HX - HEAT INDEX
  VSB - VISIBILITY
$$



USA.gov is the U.S. government's official web portal to all federal, state and local government web resources and services.